Regional Weather Roundup
Issued by NWS

Home | Current Version | Previous Version | Text Only | Print | Product List | Glossary Off
Versions: 1 2 3 4 5 6 7 8 9 10 11 12 13 14 15 16 17 18 19 20 21 22 23 24 25 26 27 28 29 30 31 32 33 34 35 36 37 38 39 40 41 42 43 44 45 46 47 48 49 50

384
ASUS44 KLIX 252105
RWRLA
LOUISIANA WEATHER ROUNDUP
NATIONAL WEATHER SERVICE NEW ORLEANS LA
300 PM CST SUN JAN 25 2015

NOTE: "FAIR" INDICATES FEW OR NO CLOUDS BELOW 12,000 FEET WITH NO
      SIGNIFICANT WEATHER AND/OR OBSTRUCTIONS TO VISIBILITY.
      SKY/WX - SKY CONDITION AND SIGNIFICANT WEATHER.
      TMP - AIR TEMPERATURE.    DP   - DEWPOINT TEMPERATURE.
      RH  - RELATIVE HUMIDITY.  PRES - PRESSURE.
      HX  - HEAT INDEX.         WCI  - WIND CHILL INDEX.

*  THESE STATIONS ARE NOT NWS OR FAA STATIONS AND ARE NOT UNDER
   NWS QUALITY CONTROL.

LAZ040-048-061>063-065-066-069-252200-
SOUTHEAST LOUISIANA

CITY           SKY/WX    TMP DP  RH WIND       PRES   REMARKS
N.O. AUDUBON     N/A     64  41  43 MISG        N/A
N.O. INTL ARPT MOSUNNY   67  39  35 SW20G28   29.92S
N.O. LAKEFRONT SUNNY     67  38  34 SW25G32   29.91F
N.O. DOWNTOWN* FAIR      66  37  34 S13G24    29.92F
SLIDELL        SUNNY     65  40  39 SW10G22   29.88F
BATON ROUGE    SUNNY     69  37  30 SW23G32   29.88F
BOOTHVILLE     SUNNY     63  53  70 SW16G24   29.97S
BELLE CHASSE   MOSUNNY   66  31  27 SW18G29   29.93S
BOGALUSA*        N/A     69  37  31 SW14G23   29.86F
GALLIANO*      CLEAR     66  45  46 MISG      29.98R
NEW ROADS*     FAIR      67  43  41 SW15      29.88F
GONZALES*      FAIR      67  39  36 SW13G22   29.92S
HAMMOND*       SUNNY     68  34  28 SW15G24   29.89S
HOUMA*         SUNNY     64  39  39 W17G29    29.97R
PORT FOURCHON* CLEAR     63  52  67 W14G21    30.03R

$$

LAZ041-044-053-054-252200-
SOUTHWEST LOUISIANA

CITY           SKY/WX    TMP DP  RH WIND       PRES   REMARKS
LAKE CHARLES   SUNNY     68  42  38 W14G23    29.96R
LAFAYETTE      SUNNY     66  42  41 W24G31    29.94R
PATTERSON      SUNNY     63  43  48 W22G35    29.98R
SALT POINT       N/A     58  51  78 SW9       29.98R
NEW IBERIA     LGT RAIN  66  42  41 SW21G31   29.95R
CHENAULT AIRPK SUNNY     70  39  32 SW17G24   29.94S

$$

LAZ027-028-252200-
CENTRAL LOUISIANA

CITY           SKY/WX    TMP DP  RH WIND       PRES   REMARKS
FORT POLK      SUNNY     66  40  38 W15G25    29.90R
ALEXANDRIA INT SUNNY     67  42  40 W14G26    29.85R
ALEXANDRIA     SUNNY     69  42  37 W17G23    29.85R

$$

LAZ001-002-252200-
NORTHWEST LOUISIANA

CITY           SKY/WX    TMP DP  RH WIND       PRES   REMARKS
SHREVEPORT     MOSUNNY   66  33  29 W22G35    29.89R
BARKSDALE AFB  SUNNY     66  33  30 W17G25    29.88R
DTN SHREVEPORT SUNNY     64  31  28 W22G30    29.89R

$$

LAZ014-016-252200-
NORTHEAST LOUISIANA

CITY           SKY/WX    TMP DP  RH WIND       PRES   REMARKS
MONROE         SUNNY     65  37  35 W21G31    29.83R
TALLULAH       MOSUNNY   65  39  38 NW16G28   29.81R

$$




USA.gov is the U.S. government's official web portal to all federal, state and local government web resources and services.